Find Starlink 11120

NORAD ID: 60042 Int'l Des: 2024-112 Owner: SPXS Country: US Constellation: starlink operational
LEOCIRCULAR

Current View

Loading 3D Globe...

About Starlink 11120

Starlink 11120 (NORAD 60042) is a starlink constellation satellite (v2 mini d2c) launched Jun 8, 2024 by SPXS of US. It operates in LEO, CIRCULAR orbit with a mass of 960.00 kg.

About Starlink 11120

Description loading...

Upcoming Passes

Passes for default location (London). Set your location on the main map for personalized predictions.

Altitude History

Loading altitude history...

Two-Line Element Set

1 60042U 24112E 26176.50754253 .00006654 00000-0 59778-4 0 9996
2 60042 53.1583 94.8675 0000891 106.8422 253.2694 15.69690394117911
Epoch: Jun 25, 2026 • Age: 9 hours

Current Status

Altitude 362.3 km
Velocity 7.70 km/s
Sub-Earth Point 36.19°N, 111.32°W
Launch Date Jun 8, 2024
Age 2 years
Type internet

Technical Details

Classification Payload
Mass 960.00 kg
Dry Mass 910.00 kg
Total Mass 960.00 kg
Length 0.30 m
Diameter 4.10 m
Span 29.00 m
Shape Box + pan
Manufacturer SPXS
Bus Type Starlink V2MD
Phase Status In Orbit
Owner/State SPXS/US

Most Searched